"Pseudo-MPEC" for C1HLH22

Created 2019 Dec 3 13:07:18 UT using Find_Orb

Click here for an explanation of pseudo-MPECs

 
 Astrometry: 
     C1HLH22  C2019 11 29$USHq1iL1ae]Ylg*hcAstrometryQ7\s#^`0,,+ea^g2IV8[r#QIF51
     C1HLH22  C2019 11 29,[8$Eio'bMekObQredacted;4'9Ln%uK0wAONE50]m/L=jhD/D5^F51
     C1HLH22  C2019 11 29,gLhZx\click_sahere#*^y3for3Dw[I`-@POd9sQYA#!!!^:NErF51
     C1HLH22  C2019 11 29X*KEqo!nP%T7E^@0wmdN++(`,fTZeLmoQlfn4*explanationsBAF51
     C1HLH22  C2019 12 02.38763 07 47 18.72 +29 54 30.2    ~C2A7 21.0 GVNEOCPG96
     C1HLH22  C2019 12 02.39284 07 47 19.52 +29 54 37.1    ~C2A7 21.1 GVNEOCPG96
     C1HLH22  C2019 12 02.39804 07 47 20.27 +29 54 43.9    ~C2A7 21.4 GVNEOCPG96
     C1HLH22  C2019 12 02.40324 07 47 21.01 +29 54 50.5    ~C2A7 21.5 GVNEOCPG96
     C1HLH22  C2019 12 02.49296 07 47 33.95 +29 56 43.9    ~C2CM       VNEOCPI52
     C1HLH22  C2019 12 02.49629 07 47 34.64 +29 56 50.3    ~C2CM 22.2 GVNEOCPI52
     C1HLH22  C2019 12 02.49962 07 47 35.10 +29 56 54.5    ~C2CM 22.0 GVNEOCPI52
     C1HLH22  C2019 12 02.50296 07 47 35.66 +29 56 58.5    ~C2CM 21.6 GVNEOCPI52
     C1HLH22  C2019 12 03.32466 07 49 45.79 +30 14 52.8    ~C38M 21.9 GVNEOCPI52
     C1HLH22  C2019 12 03.32799 07 49 46.33 +30 14 57.3    ~C38M 21.0 GVNEOCPI52
     C1HLH22  C2019 12 03.33132 07 49 46.79 +30 15 02.0    ~C38M       VNEOCPI52

Station data:
(F51) Pan-STARRS 1, Haleakala  (N20.707235 W156.255910)  US/Hawaii.
   Observers N. Primak, A. Schultz, S. Watters, J. Thiel, T. Goggia. Measurer
   PS1 Science Consortium. 1.8-m Ritchey-Chrétien + CCD.
(G96) Mt. Lemmon Survey  (N32.442754 W110.788720)  US/Arizona.  Observers T.
   A. Pruyne, B. M. Africano, E. J. Christensen, G. A. Farneth, D. C. Fuls,
   A. R. Gibbs, A. D. Grauer, H. Gröller, J. A. Johnson, R. A. Kowalski, S.
   M. Larson, G. J. Leonard, D. Rankin, R. L. Seaman, F. C. Shelly. 1.5-m
   reflector + 10K CCD.
(I52) Steward Observatory, Mt. Lemmon Station  (N32.442547 W110.788920)
   US/Arizona.  Observers T. A. Pruyne, B. M. Africano, E. J. Christensen, G.
   A. Farneth, D. C. Fuls, A. R. Gibbs, A. D. Grauer, H. Gröller, J. A.
   Johnson, R. A. Kowalski, S. M. Larson, G. J. Leonard, D. Rankin, R. L.
   Seaman, F. C. Shelly. 1.0-m reflector + CCD.

Orbital elements:  C1HLH22
   Perihelion 2020 Feb 8.112084 +/- 0.715 TT =  2:41:24 (JD 2458887.612084)
Epoch 2019 Dec  3.0 TT = JDT 2458820.5   Earth MOID: 0.1988   Ma: 0.0303
M 328.87180814 +/- 1.4              (J2000 ecliptic)          AutoNEOCP
n   0.46382395 +/- 0.0167           Peri.   77.08934 +/- 0.9
a   1.65285187 +/- 0.0398           Node    62.76648 +/- 0.38
e   0.3174099 +/- 0.0128            Incl.    7.87292 +/- 0.21
P   2.12/776.14d           H 22.2   G  0.15   U 10.0  
q 1.12822018 +/- 0.00646    Q 2.17748355 +/- 0.075
From 15 observations 2019 Nov. 29-Dec. 3; mean residual 0".62
Residuals in arcseconds: 
191129 F51  .28+  .29-    191202 G96  .37+  .50+    191202 I52  .04-  .21+    
191129 F51  .00   .06+    191202 G96  .24+  .50+    191202 I52  .86+  .04-    
191129 F51  .14-  .22+    191202 G96  .03-  .31+    191203 I52  .07-  .17-    
191129 F51  .05-  .16-    191202 I52  2.3-  1.9-    191203 I52  .48+  .21-    
191202 G96  .11-  .42+    191202 I52  .33+  .24+    191203 I52  .00   .05-    

Ephemerides (geocentric):
Date (UTC) HH   RA              Dec         delta   r     elong  mag " sig PA
---- -- -- --  -------------   -----------  ------ ------ -----  --- ---- ---
2019 12 03 13  07 50 18.901   +30 19 44.10  .36164 1.2714 136.1 21.9 .684 129
2019 12 03 14  07 50 25.460   +30 20 39.56  .36139 1.2713 136.2 21.9 .725 129
2019 12 03 15  07 50 32.022   +30 21 35.08  .36114 1.2711 136.2 21.9 .765 129
2019 12 03 16  07 50 38.586   +30 22 30.66  .36089 1.2710 136.2 21.9 .807 129
2019 12 03 17  07 50 45.153   +30 23 26.29  .36064 1.2708 136.2 21.9 .849 129
2019 12 03 18  07 50 51.723   +30 24 21.99  .36039 1.2707 136.2 21.9 .892 129
2019 12 03 19  07 50 58.295   +30 25 17.74  .36014 1.2705 136.2 21.9 .935 129
2019 12 03 20  07 51 04.870   +30 26 13.55  .35989 1.2703 136.3 21.9 .979 129
2019 12 03 21  07 51 11.447   +30 27 09.42  .35964 1.2702 136.3 21.9 1.02 129
2019 12 03 22  07 51 18.027   +30 28 05.34  .35939 1.2700 136.3 21.9 1.07 129
2019 12 03 23  07 51 24.610   +30 29 01.33  .35914 1.2699 136.3 21.9 1.12 129
2019 12 04 00  07 51 31.196   +30 29 57.38  .35889 1.2697 136.3 21.9 1.16 129
2019 12 04 01  07 51 37.784   +30 30 53.48  .35864 1.2696 136.4 21.9 1.21 129
2019 12 04 02  07 51 44.375   +30 31 49.64  .35839 1.2694 136.4 21.9 1.26 129
2019 12 04 03  07 51 50.968   +30 32 45.86  .35814 1.2692 136.4 21.9 1.31 129
2019 12 04 04  07 51 57.565   +30 33 42.14  .35789 1.2691 136.4 21.9 1.36 129
2019 12 04 05  07 52 04.164   +30 34 38.48  .35765 1.2689 136.4 21.9 1.41 129
2019 12 04 06  07 52 10.766   +30 35 34.88  .35740 1.2688 136.4 21.9 1.46 129
2019 12 04 07  07 52 17.370   +30 36 31.33  .35715 1.2686 136.5 21.9 1.51 129
2019 12 04 08  07 52 23.977   +30 37 27.85  .35690 1.2685 136.5 21.9 1.56 129
2019 12 04 09  07 52 30.587   +30 38 24.42  .35665 1.2683 136.5 21.9 1.61 130
2019 12 04 10  07 52 37.200   +30 39 21.05  .35641 1.2681 136.5 21.9 1.67 130
2019 12 04 11  07 52 43.815   +30 40 17.75  .35616 1.2680 136.5 21.9 1.72 130
2019 12 04 12  07 52 50.434   +30 41 14.50  .35591 1.2678 136.5 21.9 1.78 130
2019 12 04 13  07 52 57.055   +30 42 11.30  .35567 1.2677 136.6 21.9 1.83 130
2019 12 04 14  07 53 03.678   +30 43 08.17  .35542 1.2675 136.6 21.9 1.89 130
2019 12 04 15  07 53 10.305   +30 44 05.10  .35517 1.2674 136.6 21.9 1.95 130
2019 12 04 16  07 53 16.934   +30 45 02.08  .35493 1.2672 136.6 21.9 2.00 130
2019 12 04 17  07 53 23.566   +30 45 59.13  .35468 1.2670 136.6 21.9 2.06 130
2019 12 04 18  07 53 30.201   +30 46 56.23  .35444 1.2669 136.6 21.9 2.12 130
2019 12 04 19  07 53 36.839   +30 47 53.39  .35419 1.2667 136.7 21.9 2.18 130
2019 12 04 20  07 53 43.479   +30 48 50.61  .35395 1.2666 136.7 21.8 2.24 130
2019 12 04 21  07 53 50.123   +30 49 47.89  .35370 1.2664 136.7 21.8 2.30 130
2019 12 04 22  07 53 56.769   +30 50 45.23  .35346 1.2663 136.7 21.8 2.36 130
2019 12 04 23  07 54 03.417   +30 51 42.63  .35321 1.2661 136.7 21.8 2.43 130
2019 12 05 00  07 54 10.069   +30 52 40.09  .35297 1.2660 136.8 21.8 2.49 130
2019 12 05 01  07 54 16.724   +30 53 37.60  .35272 1.2658 136.8 21.8 2.55 130
2019 12 05 02  07 54 23.381   +30 54 35.18  .35248 1.2656 136.8 21.8 2.62 130
2019 12 05 03  07 54 30.041   +30 55 32.81  .35224 1.2655 136.8 21.8 2.68 130
2019 12 05 04  07 54 36.704   +30 56 30.50  .35199 1.2653 136.8 21.8 2.75 130
2019 12 05 05  07 54 43.370   +30 57 28.26  .35175 1.2652 136.8 21.8 2.81 130
2019 12 05 06  07 54 50.039   +30 58 26.07  .35151 1.2650 136.9 21.8 2.88 131
2019 12 05 07  07 54 56.711   +30 59 23.94  .35126 1.2649 136.9 21.8 2.95 131
2019 12 05 08  07 55 03.385   +31 00 21.86  .35102 1.2647 136.9 21.8 3.02 131
2019 12 05 09  07 55 10.063   +31 01 19.85  .35078 1.2646 136.9 21.8 3.09 131
2019 12 05 10  07 55 16.743   +31 02 17.90  .35054 1.2644 136.9 21.8 3.16 131
2019 12 05 11  07 55 23.426   +31 03 16.00  .35030 1.2642 136.9 21.8 3.23 131
2019 12 05 12  07 55 30.112   +31 04 14.17  .35005 1.2641 137.0 21.8 3.30 131